Back to catalog

STARLINK-3872

AliveCommunicationsVLEO
NORAD 52453·PAYLOAD·🇺🇸 United States

Launched May 6, 2022 from Cape Canaveral Space Force Station

Loading…

Next Passes (next 24 hours)

TLE

FreshSource: CelesTrak SupGP

Epoch: Sep 14, 2026, 13:02 UTC

1 52453C 22049C   26257.54354167  .00021987  00000+0  62905-3 0  2571
2 52453  53.1602 297.4471 0001273  76.4855  93.8025 15.35388924    16

Track STARLINK-3872 in real time with AllMySat

Download on the App Store